GRL779 EKCH-BGGH

Flight info

Callsign GRL779
Flight time N/A
Altitude 40000
Route GOLGA3A GOLGA DCT GUNPA/M081F400 DCT 63N010W 64N020W 65N030W 65N040W DCT GETDA DCT
Aircraft A332/H-SDE3GHIJ2J3J5M1RVWXY/LB2D1

Departure

Time 2026-05-01 11:40
Airport Copenhagen Kastrup Airport (EKCH)

Arrival

Time N/A
Airport Nuuk International Airport (BGGH)
Time Latitude Longitude Altitude Speed Heading
2026-05-01 11:19 55.62628 12.64424 27 ft 0 kts 66°
2026-05-01 11:29 55.62621 12.64395 27 ft 4 kts 66°
2026-05-01 11:29 55.62611 12.64351 27 ft 4 kts 66°
2026-05-01 11:29 55.62592 12.64275 27 ft 4 kts 66°
2026-05-01 11:30 55.62581 12.64233 27 ft 4 kts 52°
2026-05-01 11:30 55.62564 12.64207 27 ft 4 kts 36°
2026-05-01 11:30 55.62548 12.64174 27 ft 4 kts 80°
2026-05-01 11:30 55.62552 12.64132 27 ft 4 kts 122°
2026-05-01 11:31 55.62568 12.64086 27 ft 4 kts 123°
2026-05-01 11:31 55.62581 12.64052 27 ft 1 kts 123°
2026-05-01 11:34 55.62570 12.64081 27 ft 8 kts 123°
2026-05-01 11:35 55.62529 12.64193 27 ft 12 kts 123°
2026-05-01 11:35 55.62476 12.64323 27 ft 14 kts 128°
2026-05-01 11:35 55.62407 12.64439 27 ft 13 kts 168°
2026-05-01 11:35 55.62310 12.64409 27 ft 15 kts 195°
2026-05-01 11:36 55.62203 12.64345 27 ft 17 kts 205°
2026-05-01 11:36 55.62098 12.64258 27 ft 17 kts 205°
2026-05-01 11:36 55.61991 12.64169 27 ft 16 kts 205°
2026-05-01 11:36 55.61901 12.64093 28 ft 13 kts 205°
2026-05-01 11:37 55.61813 12.64074 28 ft 13 kts 177°
2026-05-01 11:37 55.61785 12.64077 28 ft 1 kts 176°
2026-05-01 11:37 55.61784 12.64077 28 ft 0 kts 176°
2026-05-01 11:38 55.61783 12.64077 28 ft 2 kts 176°
2026-05-01 11:39 55.61733 12.64083 28 ft 12 kts 176°
2026-05-01 11:39 55.61630 12.64065 30 ft 18 kts 206°
2026-05-01 11:39 55.61446 12.63791 29 ft 63 kts 220°
2026-05-01 11:39 55.60960 12.63038 28 ft 121 kts 221°
2026-05-01 11:40 55.60203 12.61857 50 ft 165 kts 221°
2026-05-01 11:40 55.59316 12.60529 639 ft 165 kts 217°
2026-05-01 11:40 55.58436 12.59338 1395 ft 154 kts 219°
2026-05-01 11:40 55.57558 12.58112 1803 ft 169 kts 223°
2026-05-01 11:41 55.56676 12.56592 2102 ft 187 kts 231°
2026-05-01 11:41 55.56125 12.54397 2387 ft 209 kts 267°
2026-05-01 11:41 55.56245 12.51709 2799 ft 229 kts 277°
2026-05-01 11:41 55.56490 12.48811 3317 ft 246 kts 279°
2026-05-01 11:42 55.56781 12.45797 3940 ft 258 kts 279°
2026-05-01 11:42 55.57068 12.42618 4731 ft 263 kts 277°
2026-05-01 11:42 55.57302 12.39405 5698 ft 263 kts 275°
2026-05-01 11:42 55.57515 12.36201 6702 ft 262 kts 275°
2026-05-01 11:43 55.57987 12.33056 7487 ft 272 kts 297°
2026-05-01 11:43 55.59332 12.30673 8299 ft 283 kts 330°
2026-05-01 11:43 55.61261 12.29905 9116 ft 292 kts 356°
2026-05-01 11:44 55.64653 12.29742 10597 ft 296 kts 354°
2026-05-01 11:44 55.66768 12.29429 11021 ft 315 kts 352°
2026-05-01 11:44 55.69020 12.29010 11374 ft 335 kts 352°
2026-05-01 11:44 55.71375 12.28557 11970 ft 344 kts 352°
2026-05-01 11:45 55.73781 12.28097 12698 ft 350 kts 352°
2026-05-01 11:45 55.76207 12.27588 13440 ft 354 kts 348°
2026-05-01 11:45 55.79028 12.25963 14361 ft 354 kts 331°
2026-05-01 11:45 55.79742 12.25298 14576 ft 355 kts 329°
2026-05-01 11:46 55.81888 12.23079 15252 ft 358 kts 327°
2026-05-01 11:46 55.84024 12.20774 15946 ft 361 kts 326°
2026-05-01 11:46 55.86174 12.18446 16653 ft 363 kts 327°
2026-05-01 11:46 55.88313 12.16137 17322 ft 365 kts 326°
2026-05-01 11:47 55.90491 12.13793 18018 ft 367 kts 326°
2026-05-01 11:47 55.92687 12.11432 18672 ft 370 kts 327°
2026-05-01 11:47 55.94903 12.09051 19198 ft 374 kts 327°
2026-05-01 11:47 55.97139 12.06646 19731 ft 377 kts 327°
2026-05-01 11:48 55.99396 12.04214 20254 ft 381 kts 327°
2026-05-01 11:48 56.01667 12.01764 20835 ft 382 kts 327°
2026-05-01 11:48 56.03964 11.99319 21361 ft 385 kts 328°
2026-05-01 11:48 56.06312 11.96921 21789 ft 391 kts 328°
2026-05-01 11:49 56.08691 11.94515 22292 ft 394 kts 328°
2026-05-01 11:49 56.11084 11.92094 22814 ft 396 kts 328°
2026-05-01 11:49 56.13493 11.89653 23322 ft 399 kts 328°
2026-05-01 11:49 56.15919 11.87189 23807 ft 402 kts 328°
2026-05-01 11:50 56.18360 11.84705 24243 ft 405 kts 328°
2026-05-01 11:50 56.20815 11.82202 24651 ft 407 kts 328°
2026-05-01 11:50 56.23287 11.79680 25058 ft 409 kts 328°
2026-05-01 11:50 56.25764 11.77146 25452 ft 411 kts 328°
2026-05-01 11:51 56.28259 11.74591 25863 ft 413 kts 328°
2026-05-01 11:51 56.30760 11.72026 26296 ft 414 kts 328°
2026-05-01 11:51 56.33271 11.69446 26706 ft 416 kts 328°
2026-05-01 11:51 56.35796 11.66833 27074 ft 419 kts 328°
2026-05-01 11:52 56.38329 11.64196 27442 ft 421 kts 328°
2026-05-01 11:52 56.40838 11.61575 27804 ft 423 kts 328°
2026-05-01 11:52 56.43392 11.58904 28177 ft 425 kts 328°
2026-05-01 11:52 56.45962 11.56206 28508 ft 428 kts 327°
2026-05-01 11:53 56.48386 11.53077 28857 ft 429 kts 317°
2026-05-01 11:53 56.50542 11.49336 29213 ft 430 kts 312°
2026-05-01 11:53 56.52602 11.45396 29544 ft 432 kts 310°
2026-05-01 11:53 56.54622 11.41346 29891 ft 434 kts 310°
2026-05-01 11:54 56.56626 11.37231 30219 ft 436 kts 309°
2026-05-01 11:54 56.58631 11.33086 30544 ft 438 kts 309°
2026-05-01 11:54 56.60648 11.28914 30833 ft 440 kts 309°
2026-05-01 11:54 56.62673 11.24736 31127 ft 442 kts 309°
2026-05-01 11:55 56.64710 11.20544 31380 ft 444 kts 309°
2026-05-01 11:55 56.66764 11.16321 31637 ft 446 kts 310°
2026-05-01 11:55 56.68797 11.12141 31899 ft 448 kts 310°
2026-05-01 11:55 56.70865 11.07884 32162 ft 450 kts 310°
2026-05-01 11:56 56.72943 11.03600 32407 ft 452 kts 310°
2026-05-01 11:56 56.75029 10.99292 32655 ft 454 kts 309°
2026-05-01 11:56 56.77114 10.94979 32996 ft 453 kts 309°
2026-05-01 11:56 56.79199 10.90659 33361 ft 452 kts 309°
2026-05-01 11:57 56.81273 10.86353 33693 ft 452 kts 309°
2026-05-01 11:57 56.83345 10.82044 34043 ft 451 kts 309°
2026-05-01 11:57 56.85414 10.77730 34361 ft 451 kts 309°
2026-05-01 11:57 56.87479 10.73421 34650 ft 450 kts 309°
2026-05-01 11:58 56.89536 10.69118 34961 ft 449 kts 309°
2026-05-01 11:58 56.91592 10.64811 35258 ft 448 kts 309°
2026-05-01 11:58 56.95666 10.56254 35966 ft 442 kts 309°
2026-05-01 11:59 56.97683 10.52006 36304 ft 440 kts 309°
2026-05-01 11:59 56.99690 10.47769 36572 ft 440 kts 309°
2026-05-01 11:59 57.01698 10.43522 36812 ft 440 kts 309°
2026-05-01 12:00 57.05670 10.35100 37328 ft 438 kts 309°
2026-05-01 12:00 57.07660 10.30870 37608 ft 437 kts 309°
2026-05-01 12:00 57.11624 10.22417 38125 ft 435 kts 309°
2026-05-01 12:01 57.13595 10.18203 38377 ft 434 kts 309°
2026-05-01 12:01 57.15561 10.13993 38619 ft 433 kts 308°
2026-05-01 12:01 57.17527 10.09778 38855 ft 433 kts 308°
2026-05-01 12:01 57.19487 10.05567 39075 ft 432 kts 308°
2026-05-01 12:02 57.21442 10.01359 39253 ft 432 kts 308°
2026-05-01 12:02 57.23394 9.97147 39398 ft 432 kts 308°
2026-05-01 12:02 57.25347 9.92927 39534 ft 432 kts 308°
2026-05-01 12:02 57.27299 9.88704 39694 ft 432 kts 308°
2026-05-01 12:03 57.29244 9.84489 39904 ft 431 kts 308°
2026-05-01 12:03 57.31186 9.80270 40029 ft 431 kts 308°
2026-05-01 12:03 57.33106 9.76090 40167 ft 431 kts 308°
2026-05-01 12:03 57.35047 9.71857 40269 ft 432 kts 308°
2026-05-01 12:04 57.36991 9.67608 40341 ft 433 kts 308°
2026-05-01 12:04 57.40900 9.59044 40350 ft 436 kts 307°
2026-05-01 12:05 57.44813 9.50442 40347 ft 436 kts 307°
2026-05-01 12:05 57.50674 9.37496 40344 ft 436 kts 307°
2026-05-01 12:06 57.54544 9.28910 40343 ft 436 kts 307°
2026-05-01 12:06 57.58436 9.20247 40344 ft 436 kts 307°
2026-05-01 12:07 57.62320 9.11567 40346 ft 435 kts 307°
2026-05-01 12:07 57.66186 9.02896 40343 ft 434 kts 306°
2026-05-01 12:08 57.70046 8.94203 40341 ft 434 kts 306°
2026-05-01 12:08 57.73895 8.85505 40335 ft 434 kts 306°
2026-05-01 12:09 57.77717 8.76835 40335 ft 434 kts 306°
2026-05-01 12:09 57.81550 8.68110 40335 ft 434 kts 306°
2026-05-01 12:10 57.87293 8.54977 40331 ft 434 kts 306°
2026-05-01 12:11 57.93027 8.41790 40333 ft 434 kts 305°
2026-05-01 12:11 57.96839 8.32984 40324 ft 433 kts 305°
2026-05-01 12:12 58.00644 8.24161 40319 ft 433 kts 305°
2026-05-01 12:12 58.04440 8.15324 40319 ft 433 kts 305°
2026-05-01 12:13 58.08201 8.06538 40319 ft 433 kts 305°
2026-05-01 12:13 58.11985 7.97664 40319 ft 433 kts 305°
2026-05-01 12:14 58.15765 7.88763 40318 ft 434 kts 304°
2026-05-01 12:14 58.19542 7.79839 40319 ft 434 kts 304°
2026-05-01 12:15 58.23320 7.70879 40315 ft 434 kts 304°
2026-05-01 12:15 58.27059 7.61977 40311 ft 434 kts 304°
2026-05-01 12:16 58.30815 7.53003 40305 ft 433 kts 304°
2026-05-01 12:16 58.32686 7.48516 39633 ft 433 kts 307°
2026-05-01 12:16 58.34554 7.44036 39848 ft 431 kts 307°
2026-05-01 12:17 58.36415 7.39565 39990 ft 431 kts 306°
2026-05-01 12:17 58.38283 7.35067 40567 ft 436 kts 304°
2026-05-01 12:17 58.40173 7.30493 40346 ft 439 kts 304°
2026-05-01 12:17 58.42057 7.25931 40288 ft 437 kts 304°
2026-05-01 12:18 58.45807 7.16831 40294 ft 435 kts 304°
2026-05-01 12:18 58.49540 7.07737 40291 ft 435 kts 304°
2026-05-01 12:19 58.53247 6.98674 40288 ft 435 kts 304°
2026-05-01 12:19 58.56971 6.89533 40280 ft 435 kts 303°
2026-05-01 12:20 58.60695 6.80356 40285 ft 437 kts 303°
2026-05-01 12:20 58.64422 6.71133 40280 ft 438 kts 303°
2026-05-01 12:21 58.68146 6.61880 40270 ft 437 kts 303°
2026-05-01 12:21 58.71845 6.52661 40271 ft 437 kts 303°
2026-05-01 12:22 58.75552 6.43383 40282 ft 438 kts 303°
2026-05-01 12:22 58.79258 6.34069 40279 ft 438 kts 303°
2026-05-01 12:23 58.82962 6.24725 40267 ft 439 kts 303°
2026-05-01 12:23 58.86649 6.15380 40268 ft 440 kts 303°
2026-05-01 12:24 58.90358 6.05950 40274 ft 440 kts 303°
2026-05-01 12:24 58.94051 5.96527 40266 ft 439 kts 302°
2026-05-01 12:25 58.99575 5.82353 40262 ft 439 kts 302°
2026-05-01 12:26 59.03248 5.72883 40266 ft 439 kts 302°
2026-05-01 12:26 59.08744 5.58636 40251 ft 439 kts 302°
2026-05-01 12:27 59.14203 5.44400 40244 ft 439 kts 302°
2026-05-01 12:28 59.19659 5.30088 40241 ft 439 kts 302°
2026-05-01 12:29 59.25105 5.15715 40247 ft 437 kts 302°
2026-05-01 12:29 59.30519 5.01338 40240 ft 437 kts 301°
2026-05-01 12:30 59.35890 4.86985 40238 ft 437 kts 301°
2026-05-01 12:31 59.39473 4.77362 40237 ft 437 kts 301°
2026-05-01 12:31 59.43053 4.67709 40231 ft 437 kts 301°
2026-05-01 12:32 59.46626 4.58035 40221 ft 437 kts 301°
2026-05-01 12:32 59.51969 4.43491 40221 ft 437 kts 301°
2026-05-01 12:33 59.55501 4.33830 40214 ft 436 kts 301°
2026-05-01 12:33 59.59036 4.24120 40211 ft 435 kts 301°
2026-05-01 12:34 59.62562 4.14395 40204 ft 435 kts 301°
2026-05-01 12:34 59.65486 4.06297 40201 ft 435 kts 301°
2026-05-01 12:35 59.69000 3.96528 40200 ft 435 kts 301°
2026-05-01 12:35 59.72506 3.86742 40190 ft 436 kts 301°
2026-05-01 12:36 59.76008 3.76929 40190 ft 436 kts 301°
2026-05-01 12:36 59.79507 3.67080 40178 ft 436 kts 300°
2026-05-01 12:37 59.83000 3.57207 40179 ft 436 kts 300°
2026-05-01 12:37 59.86478 3.47334 40183 ft 435 kts 300°
2026-05-01 12:38 59.89928 3.37503 40164 ft 435 kts 300°
2026-05-01 12:38 59.93389 3.27596 40172 ft 435 kts 300°
2026-05-01 12:39 59.96848 3.17654 40164 ft 436 kts 300°
2026-05-01 12:39 60.00299 3.07693 40160 ft 436 kts 300°
2026-05-01 12:40 60.03746 2.97702 40152 ft 436 kts 300°
2026-05-01 12:40 60.07188 2.87680 40144 ft 436 kts 300°
2026-05-01 12:41 60.10622 2.77637 40141 ft 436 kts 300°
2026-05-01 12:41 60.14021 2.67649 40167 ft 436 kts 300°
2026-05-01 12:42 60.17427 2.57569 40156 ft 436 kts 300°
2026-05-01 12:42 60.20855 2.47484 40131 ft 436 kts 299°
2026-05-01 12:43 60.24250 2.37379 40127 ft 435 kts 299°
2026-05-01 12:43 60.27631 2.27264 40121 ft 435 kts 299°
2026-05-01 12:44 60.30990 2.17176 40124 ft 435 kts 299°
2026-05-01 12:45 60.37725 1.96833 40119 ft 435 kts 298°
2026-05-01 12:45 60.41080 1.86634 40107 ft 435 kts 298°
2026-05-01 12:46 60.44428 1.76409 40105 ft 435 kts 298°
2026-05-01 12:46 60.47769 1.66161 40106 ft 434 kts 298°
2026-05-01 12:47 60.51071 1.55988 40099 ft 434 kts 298°
2026-05-01 12:47 60.54379 1.45751 40100 ft 433 kts 298°
2026-05-01 12:48 60.57677 1.35499 40099 ft 433 kts 298°
2026-05-01 12:48 60.60976 1.25202 40092 ft 434 kts 298°
2026-05-01 12:49 60.64252 1.14930 40091 ft 434 kts 297°
2026-05-01 12:49 60.67534 1.04595 40086 ft 434 kts 297°
2026-05-01 12:50 60.70810 0.94230 40086 ft 434 kts 297°
2026-05-01 12:50 60.74079 0.83841 40086 ft 434 kts 297°
2026-05-01 12:51 60.77335 0.73448 40076 ft 433 kts 297°
2026-05-01 12:52 60.82196 0.57843 40078 ft 433 kts 297°
2026-05-01 12:52 60.87024 0.42236 40069 ft 433 kts 296°
2026-05-01 12:53 60.91839 0.26569 40066 ft 433 kts 296°
2026-05-01 12:54 60.95047 0.16070 40070 ft 433 kts 296°
2026-05-01 12:54 60.99834 0.00275 40065 ft 432 kts 295°
2026-05-01 12:55 61.04070 -0.16091 40063 ft 431 kts 291°
2026-05-01 12:56 61.06742 -0.27082 40059 ft 430 kts 291°
2026-05-01 12:56 61.09440 -0.38093 40074 ft 429 kts 291°
2026-05-01 12:57 61.12151 -0.49103 40057 ft 429 kts 291°
2026-05-01 12:57 61.16216 -0.65665 40055 ft 429 kts 291°
2026-05-01 12:58 61.18896 -0.76655 40057 ft 429 kts 291°
2026-05-01 12:59 61.22916 -0.93256 40049 ft 429 kts 291°
2026-05-01 12:59 61.26914 -1.09892 40048 ft 429 kts 291°
2026-05-01 13:00 61.30895 -1.26580 40062 ft 429 kts 290°
2026-05-01 13:01 61.34835 -1.43229 40056 ft 428 kts 290°
2026-05-01 13:02 61.38757 -1.59925 40046 ft 427 kts 290°
2026-05-01 13:07 61.66904 -2.83747 40033 ft 428 kts 289°
2026-05-01 13:08 61.69415 -2.95155 40028 ft 430 kts 289°
2026-05-01 13:08 61.71908 -3.06539 40022 ft 430 kts 289°
2026-05-01 13:09 61.74410 -3.18025 40024 ft 430 kts 289°
2026-05-01 13:09 61.76897 -3.29505 40024 ft 430 kts 289°
2026-05-01 13:10 61.79362 -3.40946 40019 ft 430 kts 289°
2026-05-01 13:10 61.81829 -3.52461 40022 ft 430 kts 288°
2026-05-01 13:11 61.84292 -3.64024 40021 ft 431 kts 288°
2026-05-01 13:11 61.86749 -3.75623 40030 ft 432 kts 288°
2026-05-01 13:12 61.89201 -3.87255 40020 ft 431 kts 288°
2026-05-01 13:12 61.91636 -3.98869 40015 ft 431 kts 288°
2026-05-01 13:13 61.94043 -4.10419 40013 ft 431 kts 288°
2026-05-01 13:13 61.96457 -4.22071 40012 ft 430 kts 288°
2026-05-01 13:14 61.98860 -4.33737 40007 ft 430 kts 288°
2026-05-01 13:14 62.01256 -4.45430 40002 ft 431 kts 288°
2026-05-01 13:15 62.03639 -4.57131 40006 ft 430 kts 288°
2026-05-01 13:15 62.05997 -4.68774 40003 ft 430 kts 288°
2026-05-01 13:16 62.08363 -4.80523 39995 ft 430 kts 288°
2026-05-01 13:16 62.10716 -4.92277 39989 ft 430 kts 288°
2026-05-01 13:17 62.15374 -5.15744 39991 ft 429 kts 288°
2026-05-01 13:18 62.18837 -5.33364 39977 ft 428 kts 287°
2026-05-01 13:18 62.21132 -5.45134 39977 ft 428 kts 287°
2026-05-01 13:19 62.23415 -5.56909 39974 ft 428 kts 287°
2026-05-01 13:20 62.26825 -5.74624 39974 ft 428 kts 287°
2026-05-01 13:20 62.29086 -5.86460 39965 ft 428 kts 287°
2026-05-01 13:21 62.32446 -6.04183 39960 ft 428 kts 287°
2026-05-01 13:21 62.34680 -6.16055 39960 ft 428 kts 287°
2026-05-01 13:22 62.36905 -6.27952 39957 ft 428 kts 287°
2026-05-01 13:22 62.38750 -6.37864 39971 ft 428 kts 287°
2026-05-01 13:23 62.40955 -6.49780 39951 ft 428 kts 286°
2026-05-01 13:23 62.43136 -6.61642 39943 ft 428 kts 286°
2026-05-01 13:24 62.45323 -6.73609 39957 ft 428 kts 286°
2026-05-01 13:25 62.48578 -6.91555 39950 ft 427 kts 286°
2026-05-01 13:25 62.50734 -7.03535 39935 ft 427 kts 286°
2026-05-01 13:26 62.52869 -7.15472 39948 ft 427 kts 285°
2026-05-01 13:26 62.55011 -7.27521 39935 ft 427 kts 285°
2026-05-01 13:27 62.57136 -7.39555 39947 ft 427 kts 285°
2026-05-01 13:27 62.60294 -7.57572 39920 ft 427 kts 285°
2026-05-01 13:28 62.63439 -7.75687 39929 ft 426 kts 285°
2026-05-01 13:29 62.67586 -7.99846 39912 ft 426 kts 285°
2026-05-01 13:31 62.73714 -8.36124 39910 ft 425 kts 285°
2026-05-01 13:32 62.78744 -8.66442 39898 ft 425 kts 285°
2026-05-01 13:33 62.83718 -8.96915 39897 ft 425 kts 284°
2026-05-01 13:34 62.87648 -9.21367 39891 ft 425 kts 284°
2026-05-01 13:35 62.90559 -9.39683 39892 ft 425 kts 284°
2026-05-01 13:36 62.93453 -9.58090 39883 ft 425 kts 284°
2026-05-01 13:36 62.96326 -9.76542 39887 ft 425 kts 284°
2026-05-01 13:37 62.98231 -9.88888 39886 ft 427 kts 284°
2026-05-01 13:37 63.00121 -10.01304 39891 ft 428 kts 283°
2026-05-01 13:38 63.02737 -10.20013 39885 ft 427 kts 282°
2026-05-01 13:39 63.04440 -10.32565 39891 ft 427 kts 282°
2026-05-01 13:39 63.06142 -10.45117 39903 ft 427 kts 282°
2026-05-01 13:40 63.07840 -10.57687 39889 ft 427 kts 282°
2026-05-01 13:40 63.09529 -10.70274 39889 ft 428 kts 282°
2026-05-01 13:41 63.11209 -10.82891 39891 ft 428 kts 282°
2026-05-01 13:41 63.12865 -10.95427 39892 ft 428 kts 282°
2026-05-01 13:42 63.14522 -11.08071 39891 ft 428 kts 282°
2026-05-01 13:42 63.16167 -11.20730 39892 ft 428 kts 282°
2026-05-01 13:43 63.17800 -11.33388 39898 ft 428 kts 282°
2026-05-01 13:43 63.19423 -11.46083 39898 ft 428 kts 282°
2026-05-01 13:44 63.21038 -11.58815 39902 ft 429 kts 282°
2026-05-01 13:44 63.22644 -11.71573 39900 ft 429 kts 282°
2026-05-01 13:45 63.24229 -11.84271 39901 ft 429 kts 281°
2026-05-01 13:45 63.25814 -11.97074 39905 ft 430 kts 281°
2026-05-01 13:46 63.27392 -12.09923 39903 ft 431 kts 281°
2026-05-01 13:46 63.28957 -12.22790 39903 ft 431 kts 281°
2026-05-01 13:47 63.30511 -12.35665 39904 ft 431 kts 281°
2026-05-01 13:47 63.32056 -12.48576 39909 ft 432 kts 281°
2026-05-01 13:48 63.33590 -12.61507 39916 ft 432 kts 281°
2026-05-01 13:48 63.35103 -12.74372 39914 ft 432 kts 281°
2026-05-01 13:49 63.36612 -12.87322 39910 ft 432 kts 281°
2026-05-01 13:49 63.38110 -13.00292 39918 ft 432 kts 281°
2026-05-01 13:50 63.39596 -13.13269 39916 ft 432 kts 281°
2026-05-01 13:50 63.41071 -13.26266 39920 ft 432 kts 281°
2026-05-01 13:51 63.42534 -13.39276 39960 ft 432 kts 281°
2026-05-01 13:51 63.43975 -13.52201 39928 ft 431 kts 281°
2026-05-01 13:52 63.45411 -13.65210 39924 ft 431 kts 281°
2026-05-01 13:52 63.46837 -13.78240 39936 ft 431 kts 281°
2026-05-01 13:53 63.48251 -13.91285 39923 ft 431 kts 280°
2026-05-01 13:53 63.50347 -14.10857 39933 ft 431 kts 281°
2026-05-01 13:54 63.51731 -14.23931 39923 ft 431 kts 281°
2026-05-01 13:54 63.53094 -14.36935 39934 ft 431 kts 280°
2026-05-01 13:55 63.54457 -14.50054 39937 ft 431 kts 280°
2026-05-01 13:55 63.55805 -14.63167 39942 ft 431 kts 280°
2026-05-01 13:56 63.57142 -14.76304 39932 ft 431 kts 280°
2026-05-01 13:56 63.58464 -14.89417 39930 ft 431 kts 280°
2026-05-01 13:57 63.59555 -15.00343 39940 ft 430 kts 280°
2026-05-01 13:57 63.61071 -15.15675 39938 ft 430 kts 280°
2026-05-01 13:58 63.62354 -15.28795 39941 ft 430 kts 280°
2026-05-01 13:58 63.63619 -15.41857 39941 ft 430 kts 280°
2026-05-01 13:59 63.64880 -15.55026 39939 ft 430 kts 280°
2026-05-01 13:59 63.66127 -15.68175 39939 ft 430 kts 279°
2026-05-01 14:00 63.67362 -15.81351 39947 ft 429 kts 279°
2026-05-01 14:00 63.68584 -15.94521 39947 ft 429 kts 279°
2026-05-01 14:01 63.69795 -16.07704 39944 ft 429 kts 279°
2026-05-01 14:01 63.70994 -16.20896 39944 ft 429 kts 279°
2026-05-01 14:02 63.72171 -16.34005 39944 ft 429 kts 279°
2026-05-01 14:02 63.73346 -16.47224 39944 ft 429 kts 279°
2026-05-01 14:03 63.74511 -16.60479 39946 ft 429 kts 279°
2026-05-01 14:03 63.75662 -16.73728 39950 ft 429 kts 279°
2026-05-01 14:04 63.76792 -16.86881 39950 ft 429 kts 279°
2026-05-01 14:04 63.77729 -16.97913 39950 ft 429 kts 279°
2026-05-01 14:05 63.79033 -17.13433 39952 ft 429 kts 278°
2026-05-01 14:05 63.80128 -17.26631 39952 ft 429 kts 278°
2026-05-01 14:06 63.81218 -17.39929 39964 ft 429 kts 278°
2026-05-01 14:06 63.82294 -17.53222 39963 ft 428 kts 278°
2026-05-01 14:07 63.83356 -17.66496 39963 ft 428 kts 278°
2026-05-01 14:08 63.84920 -17.86358 39980 ft 428 kts 278°
2026-05-01 14:08 63.85951 -17.99642 39999 ft 428 kts 278°
2026-05-01 14:09 63.86969 -18.12940 40001 ft 427 kts 278°
2026-05-01 14:09 63.87805 -18.23979 39986 ft 427 kts 278°
2026-05-01 14:10 63.88959 -18.39421 40001 ft 427 kts 278°
2026-05-01 14:10 63.89780 -18.50554 40014 ft 427 kts 277°
2026-05-01 14:11 63.90745 -18.63791 40014 ft 427 kts 277°
2026-05-01 14:11 63.92178 -18.83784 40034 ft 427 kts 277°
2026-05-01 14:12 63.93117 -18.97109 40033 ft 427 kts 277°
2026-05-01 14:12 63.94039 -19.10378 40037 ft 427 kts 277°
2026-05-01 14:13 63.94954 -19.23723 40045 ft 427 kts 277°
2026-05-01 14:13 63.95857 -19.37081 40049 ft 427 kts 277°
2026-05-01 14:14 63.96746 -19.50434 40050 ft 427 kts 277°
2026-05-01 14:14 63.97624 -19.63800 40073 ft 427 kts 277°
2026-05-01 14:15 63.98490 -19.77186 40051 ft 426 kts 277°
2026-05-01 14:15 63.99337 -19.90470 40051 ft 426 kts 277°
2026-05-01 14:16 64.00511 -20.03694 40047 ft 427 kts 283°
2026-05-01 14:16 64.02206 -20.16696 40052 ft 427 kts 285°
2026-05-01 14:17 64.03985 -20.29650 40051 ft 427 kts 285°
2026-05-01 14:17 64.05749 -20.42509 40059 ft 427 kts 285°
2026-05-01 14:18 64.07506 -20.55488 40067 ft 427 kts 285°
2026-05-01 14:18 64.08951 -20.66285 40064 ft 427 kts 284°
2026-05-01 14:19 64.10969 -20.81503 40062 ft 427 kts 284°
2026-05-01 14:19 64.12681 -20.94516 40069 ft 427 kts 284°
2026-05-01 14:20 64.15224 -21.14044 40075 ft 428 kts 284°
2026-05-01 14:21 64.16916 -21.27172 40076 ft 428 kts 284°
2026-05-01 14:21 64.18593 -21.40290 40085 ft 428 kts 284°
2026-05-01 14:22 64.21088 -21.60002 40097 ft 428 kts 284°
2026-05-01 14:22 64.22725 -21.73071 40100 ft 428 kts 284°
2026-05-01 14:23 64.24361 -21.86246 40101 ft 428 kts 284°
2026-05-01 14:23 64.25985 -21.99440 40100 ft 428 kts 284°
2026-05-01 14:24 64.27596 -22.12630 40108 ft 428 kts 284°
2026-05-01 14:24 64.29185 -22.25752 40103 ft 428 kts 284°
2026-05-01 14:25 64.30772 -22.38975 40107 ft 428 kts 283°
2026-05-01 14:25 64.32348 -22.52221 40112 ft 428 kts 283°
2026-05-01 14:26 64.34678 -22.72022 40113 ft 428 kts 283°
2026-05-01 14:27 64.36223 -22.85301 40116 ft 428 kts 283°
2026-05-01 14:27 64.37757 -22.98594 40118 ft 428 kts 283°
2026-05-01 14:28 64.40034 -23.18557 40121 ft 428 kts 283°
2026-05-01 14:28 64.41525 -23.31782 40139 ft 428 kts 283°
2026-05-01 14:29 64.43015 -23.45119 40123 ft 428 kts 283°
2026-05-01 14:30 64.45959 -23.71825 40138 ft 427 kts 283°
2026-05-01 14:31 64.48124 -23.91795 40126 ft 427 kts 283°
2026-05-01 14:31 64.49557 -24.05171 40140 ft 427 kts 283°
2026-05-01 14:32 64.50978 -24.18561 40143 ft 427 kts 282°
2026-05-01 14:32 64.52387 -24.31971 40146 ft 427 kts 282°
2026-05-01 14:33 64.53784 -24.45391 40147 ft 427 kts 282°
2026-05-01 14:33 64.55168 -24.58825 40155 ft 427 kts 282°
2026-05-01 14:34 64.56535 -24.72219 40148 ft 427 kts 282°
2026-05-01 14:34 64.57895 -24.85671 40156 ft 427 kts 282°
2026-05-01 14:35 64.59241 -24.99139 40151 ft 427 kts 282°
2026-05-01 14:35 64.60575 -25.12611 40155 ft 427 kts 282°
2026-05-01 14:36 64.61898 -25.26106 40154 ft 426 kts 282°
2026-05-01 14:36 64.63193 -25.39448 38780 ft 424 kts 279°
2026-05-01 14:36 64.63850 -25.46141 40348 ft 425 kts 281°
2026-05-01 14:37 64.64500 -25.52914 40215 ft 429 kts 282°
2026-05-01 14:37 64.65786 -25.66525 40156 ft 428 kts 281°
2026-05-01 14:38 64.67053 -25.80066 40159 ft 426 kts 281°
2026-05-01 14:38 64.68312 -25.93611 40162 ft 426 kts 281°
2026-05-01 14:39 64.69552 -26.07091 40162 ft 426 kts 281°
2026-05-01 14:39 64.70787 -26.20653 40165 ft 426 kts 281°
2026-05-01 14:40 64.72012 -26.34257 40163 ft 426 kts 281°
2026-05-01 14:40 64.73222 -26.47842 40164 ft 426 kts 281°
2026-05-01 14:41 64.74419 -26.61436 40173 ft 426 kts 281°
2026-05-01 14:41 64.75604 -26.75041 40173 ft 426 kts 281°
2026-05-01 14:42 64.76776 -26.88662 40174 ft 426 kts 281°
2026-05-01 14:42 64.77929 -27.02222 40176 ft 426 kts 281°
2026-05-01 14:43 64.79075 -27.15845 40170 ft 426 kts 281°
2026-05-01 14:43 64.79459 -27.20449 40173 ft 426 kts 281°
2026-05-01 14:44 64.80428 -27.31893 40172 ft 426 kts 281°
2026-05-01 14:44 64.82155 -27.52394 40173 ft 426 kts 281°
2026-05-01 14:45 64.83800 -27.72810 40171 ft 426 kts 281°
2026-05-01 14:46 64.84880 -27.86502 40171 ft 426 kts 281°
2026-05-01 14:46 64.86475 -28.07037 40174 ft 425 kts 281°
2026-05-01 14:47 64.87522 -28.20718 40196 ft 425 kts 281°
2026-05-01 14:48 64.89068 -28.41253 40167 ft 425 kts 280°
2026-05-01 14:48 64.90588 -28.61834 40179 ft 425 kts 280°
2026-05-01 14:49 64.92563 -28.89213 40169 ft 425 kts 280°
2026-05-01 14:50 64.94489 -29.16745 40171 ft 424 kts 280°
2026-05-01 14:51 64.95901 -29.37287 40167 ft 424 kts 279°
2026-05-01 14:52 64.97287 -29.57945 40171 ft 424 kts 279°
2026-05-01 14:53 64.98643 -29.78615 40171 ft 424 kts 279°
2026-05-01 14:53 64.99529 -29.92382 40166 ft 424 kts 279°
2026-05-01 14:54 65.00289 -30.06136 40146 ft 424 kts 276°
2026-05-01 14:54 65.00749 -30.20039 40167 ft 424 kts 275°
2026-05-01 14:55 65.01138 -30.33953 40170 ft 424 kts 275°
2026-05-01 14:55 65.01523 -30.47281 40170 ft 424 kts 275°
2026-05-01 14:56 65.01932 -30.61194 40170 ft 424 kts 275°
2026-05-01 14:56 65.02336 -30.75100 40173 ft 424 kts 275°
2026-05-01 14:57 65.02724 -30.88933 40170 ft 424 kts 275°
2026-05-01 14:57 65.03285 -31.09845 40165 ft 424 kts 275°
2026-05-01 14:58 65.03642 -31.23751 40170 ft 423 kts 275°
2026-05-01 14:58 65.03986 -31.37657 40170 ft 423 kts 275°
2026-05-01 14:59 65.04261 -31.49225 40170 ft 423 kts 274°
2026-05-01 14:59 65.04581 -31.63140 40170 ft 423 kts 274°
2026-05-01 15:00 65.05037 -31.84018 40170 ft 423 kts 274°
2026-05-01 15:01 65.05325 -31.97929 40165 ft 423 kts 274°
2026-05-01 15:01 65.05597 -32.11756 40162 ft 422 kts 274°
2026-05-01 15:02 65.05859 -32.25659 40187 ft 422 kts 274°
2026-05-01 15:02 65.06107 -32.39550 40164 ft 422 kts 274°
2026-05-01 15:03 65.06342 -32.53440 40159 ft 422 kts 274°
2026-05-01 15:03 65.06564 -32.67275 40159 ft 422 kts 274°
2026-05-01 15:04 65.06773 -32.81185 40159 ft 422 kts 273°
2026-05-01 15:04 65.06970 -32.95071 40159 ft 422 kts 273°
2026-05-01 15:05 65.07153 -33.08978 40154 ft 421 kts 273°
2026-05-01 15:05 65.07323 -33.22865 40159 ft 421 kts 273°
2026-05-01 15:06 65.07480 -33.36728 40160 ft 420 kts 273°
2026-05-01 15:06 65.07624 -33.50491 40162 ft 421 kts 273°
2026-05-01 15:07 65.07756 -33.64372 40159 ft 421 kts 272°
2026-05-01 15:07 65.07876 -33.78247 40158 ft 420 kts 272°
2026-05-01 15:08 65.07981 -33.92108 40159 ft 420 kts 272°
2026-05-01 15:08 65.08074 -34.05903 40140 ft 420 kts 272°
2026-05-01 15:09 65.08150 -34.18940 40158 ft 420 kts 272°
2026-05-01 15:09 65.08218 -34.32797 40160 ft 420 kts 272°
2026-05-01 15:10 65.08274 -34.46648 40160 ft 420 kts 272°
2026-05-01 15:10 65.08333 -34.67334 40162 ft 420 kts 272°
2026-05-01 15:11 65.08364 -34.88103 40157 ft 420 kts 271°
2026-05-01 15:12 65.08368 -35.01953 40157 ft 420 kts 271°
2026-05-01 15:12 65.08351 -35.22721 40160 ft 420 kts 271°
2026-05-01 15:14 65.08258 -35.57349 40154 ft 419 kts 271°
2026-05-01 15:14 65.08164 -35.78004 40157 ft 419 kts 271°
2026-05-01 15:15 65.07994 -36.05696 40154 ft 419 kts 270°
2026-05-01 15:16 65.07775 -36.33282 40156 ft 420 kts 270°
2026-05-01 15:18 65.07428 -36.67863 40155 ft 419 kts 270°
2026-05-01 15:19 65.07093 -36.95516 40154 ft 419 kts 270°
2026-05-01 15:19 65.06809 -37.16235 40157 ft 419 kts 270°
2026-05-01 15:20 65.06497 -37.36866 40157 ft 419 kts 269°
2026-05-01 15:21 65.06272 -37.50651 40155 ft 419 kts 269°
2026-05-01 15:21 65.06035 -37.64467 40157 ft 419 kts 269°
2026-05-01 15:22 65.05654 -37.85188 40157 ft 419 kts 269°
2026-05-01 15:22 65.05387 -37.98883 40180 ft 419 kts 269°
2026-05-01 15:23 65.05106 -38.12677 40160 ft 418 kts 269°
2026-05-01 15:23 65.04811 -38.26444 40146 ft 418 kts 268°
2026-05-01 15:24 65.04505 -38.40208 40150 ft 418 kts 268°
2026-05-01 15:24 65.04185 -38.53971 40157 ft 418 kts 268°
2026-05-01 15:25 65.03856 -38.67629 40153 ft 418 kts 268°
2026-05-01 15:25 65.03512 -38.81382 40161 ft 418 kts 268°
2026-05-01 15:26 65.03154 -38.95132 40152 ft 418 kts 268°
2026-05-01 15:26 65.02785 -39.08872 40148 ft 418 kts 268°
2026-05-01 15:27 65.02403 -39.22591 40151 ft 417 kts 268°
2026-05-01 15:28 65.01807 -39.43135 40173 ft 417 kts 267°
2026-05-01 15:28 65.01397 -39.56754 40153 ft 417 kts 267°
2026-05-01 15:29 65.00754 -39.77303 40161 ft 417 kts 267°
2026-05-01 15:30 64.99989 -40.04578 40133 ft 416 kts 270°
2026-05-01 15:31 64.99863 -40.45627 40163 ft 416 kts 270°
2026-05-01 15:32 64.99713 -40.72886 40163 ft 416 kts 270°
2026-05-01 15:34 64.99391 -41.13981 40157 ft 417 kts 270°